Zurück zum Katalog

UMBRA-11

AktivWissenschaftSSO
NORAD 66748·PAYLOAD·🇺🇸 United States

Gestartet Nov 28, 2025 von Vandenberg Space Force Base

Loading…

Nächste Überflüge (nächste 24 Stunden)

TLE

AktuellSource: Space-Track

Epoche: Sep 14, 2026, 14:58 UTC

1 66748U 25276CL  26257.62364230  .00018843  00000-0  64987-3 0  9992
2 66748  97.4125 331.8809 0002125  48.6519 311.4904 15.30033901 44157

Verfolge UMBRA-11 in Echtzeit mit AllMySat

Download on the App Store